Year,Month,Day,Hour,Minute,Value (Times are PST for temperature in C)
2020,08,13,00,00,11.20
2020,08,13,00,01,11.10
2020,08,13,00,02,11.10
2020,08,13,00,03,11.10
2020,08,13,00,04,11.00
2020,08,13,00,05,11.00
2020,08,13,00,06,10.90
2020,08,13,00,07,10.90
2020,08,13,00,08,10.80
2020,08,13,00,09,10.70
2020,08,13,00,10,10.70
2020,08,13,00,11,10.60
2020,08,13,00,12,10.60
2020,08,13,00,13,10.60
2020,08,13,00,14,10.50
2020,08,13,00,15,10.50
2020,08,13,00,16,10.50
2020,08,13,00,17,10.50
2020,08,13,00,18,10.40
2020,08,13,00,19,10.40
2020,08,13,00,20,10.40
2020,08,13,00,21,10.40
2020,08,13,00,22,10.40
2020,08,13,00,23,10.40
2020,08,13,00,24,10.40
2020,08,13,00,25,10.40
2020,08,13,00,26,10.30
2020,08,13,00,27,10.30
2020,08,13,00,28,10.30
2020,08,13,00,29,10.20
2020,08,13,00,30,10.20
2020,08,13,00,31,10.20
2020,08,13,00,32,10.10
2020,08,13,00,33,10.10
2020,08,13,00,34,10.10
2020,08,13,00,35,10.10
2020,08,13,00,36,10.00
2020,08,13,00,37,10.00
2020,08,13,00,38,10.00
2020,08,13,00,39,9.90
2020,08,13,00,40,9.90
2020,08,13,00,41,9.90
2020,08,13,00,42,9.80
2020,08,13,00,43,9.80
2020,08,13,00,44,9.80
2020,08,13,00,45,9.80
2020,08,13,00,46,9.80
2020,08,13,00,47,9.80
2020,08,13,00,48,9.80
2020,08,13,00,49,9.70
2020,08,13,00,50,9.70
2020,08,13,00,51,9.70
2020,08,13,00,52,9.70
2020,08,13,00,53,9.70
2020,08,13,00,54,9.60
2020,08,13,00,55,9.60
2020,08,13,00,56,9.60
2020,08,13,00,57,9.60
2020,08,13,00,58,9.60
2020,08,13,00,59,9.50
2020,08,13,01,00,9.50
2020,08,13,01,01,9.50
2020,08,13,01,02,9.50
2020,08,13,01,03,9.40
2020,08,13,01,04,9.40
2020,08,13,01,05,9.40
2020,08,13,01,06,9.40
2020,08,13,01,07,9.40
2020,08,13,01,08,9.40
2020,08,13,01,09,9.30
2020,08,13,01,10,9.30
2020,08,13,01,11,9.30
2020,08,13,01,12,9.30
2020,08,13,01,13,9.30
2020,08,13,01,14,9.30
2020,08,13,01,15,9.20
2020,08,13,01,16,9.20
2020,08,13,01,17,9.20
2020,08,13,01,18,9.10
2020,08,13,01,19,9.10
2020,08,13,01,20,9.10
2020,08,13,01,21,9.00
2020,08,13,01,22,9.00
2020,08,13,01,23,8.90
2020,08,13,01,24,8.90
2020,08,13,01,25,8.90
2020,08,13,01,26,8.80
2020,08,13,01,27,8.80
2020,08,13,01,28,8.80
2020,08,13,01,29,8.80
2020,08,13,01,30,8.70
2020,08,13,01,31,8.70
2020,08,13,01,32,8.70
2020,08,13,01,33,8.70
2020,08,13,01,34,8.60
2020,08,13,01,35,8.60
2020,08,13,01,36,8.60
2020,08,13,01,37,8.60
2020,08,13,01,38,8.60
2020,08,13,01,39,8.60
2020,08,13,01,40,8.60
2020,08,13,01,41,8.60
2020,08,13,01,42,8.60
2020,08,13,01,43,8.50
2020,08,13,01,44,8.50
2020,08,13,01,45,8.50
2020,08,13,01,46,8.50
2020,08,13,01,47,8.50
2020,08,13,01,48,8.50
2020,08,13,01,49,8.50
2020,08,13,01,50,8.40
2020,08,13,01,51,8.40
2020,08,13,01,52,8.40
2020,08,13,01,53,8.40
2020,08,13,01,54,8.40
2020,08,13,01,55,8.30
2020,08,13,01,56,8.30
2020,08,13,01,57,8.30
2020,08,13,01,58,8.30
2020,08,13,01,59,8.30
2020,08,13,02,00,8.30
2020,08,13,02,01,8.20
2020,08,13,02,02,8.20
2020,08,13,02,03,8.20
2020,08,13,02,04,8.20
2020,08,13,02,05,8.10
2020,08,13,02,06,8.10
2020,08,13,02,07,8.10
2020,08,13,02,08,8.10
2020,08,13,02,09,8.00
2020,08,13,02,10,8.00
2020,08,13,02,11,7.90
2020,08,13,02,12,7.90
2020,08,13,02,13,7.90
2020,08,13,02,14,7.80
2020,08,13,02,15,7.80
2020,08,13,02,16,7.80
2020,08,13,02,17,7.80
2020,08,13,02,18,7.70
2020,08,13,02,19,7.70
2020,08,13,02,20,7.70
2020,08,13,02,21,7.70
2020,08,13,02,22,7.70
2020,08,13,02,23,7.70
2020,08,13,02,24,7.70
2020,08,13,02,25,7.70
2020,08,13,02,26,7.70
2020,08,13,02,27,7.70
2020,08,13,02,28,7.70
2020,08,13,02,29,7.70
2020,08,13,02,30,7.70
2020,08,13,02,31,7.70
2020,08,13,02,32,7.70
2020,08,13,02,33,7.70
2020,08,13,02,34,7.70
2020,08,13,02,35,7.70
2020,08,13,02,36,7.70
2020,08,13,02,37,7.70
2020,08,13,02,38,7.70
2020,08,13,02,39,7.70
2020,08,13,02,40,7.70
2020,08,13,02,41,7.70
2020,08,13,02,42,7.70
2020,08,13,02,43,7.70
2020,08,13,02,44,7.70
2020,08,13,02,45,7.70
2020,08,13,02,46,7.60
2020,08,13,02,47,7.60
2020,08,13,02,48,7.60
2020,08,13,02,49,7.50
2020,08,13,02,50,7.40
2020,08,13,02,51,7.40
2020,08,13,02,52,7.30
2020,08,13,02,53,7.30
2020,08,13,02,54,7.30
2020,08,13,02,55,7.30
2020,08,13,02,56,7.30
2020,08,13,02,57,7.30
2020,08,13,02,58,7.30
2020,08,13,02,59,7.30
2020,08,13,03,00,7.30
2020,08,13,03,01,7.30
2020,08,13,03,02,7.30
2020,08,13,03,03,7.30
2020,08,13,03,04,7.30
2020,08,13,03,05,7.30
2020,08,13,03,06,7.30
2020,08,13,03,07,7.30
2020,08,13,03,08,7.30
2020,08,13,03,09,7.20
2020,08,13,03,10,7.20
2020,08,13,03,11,7.20
2020,08,13,03,12,7.20
2020,08,13,03,13,7.20
2020,08,13,03,14,7.10
2020,08,13,03,15,7.10
2020,08,13,03,16,7.10
2020,08,13,03,17,7.10
2020,08,13,03,18,7.10
2020,08,13,03,19,7.00
2020,08,13,03,20,7.00
2020,08,13,03,21,7.00
2020,08,13,03,22,6.90
2020,08,13,03,23,6.90
2020,08,13,03,24,6.90
2020,08,13,03,25,6.90
2020,08,13,03,26,6.90
2020,08,13,03,27,6.90
2020,08,13,03,28,6.90
2020,08,13,03,29,6.90
2020,08,13,03,30,6.90
2020,08,13,03,31,6.90
2020,08,13,03,32,6.90
2020,08,13,03,33,6.90
2020,08,13,03,34,6.90
2020,08,13,03,35,6.90
2020,08,13,03,36,6.90
2020,08,13,03,37,6.90
2020,08,13,03,38,6.90
2020,08,13,03,39,6.90
2020,08,13,03,40,6.90
2020,08,13,03,41,6.90
2020,08,13,03,42,6.90
2020,08,13,03,43,6.90
2020,08,13,03,44,6.90
2020,08,13,03,45,6.90
2020,08,13,03,46,6.90
2020,08,13,03,47,6.90
2020,08,13,03,48,6.90
2020,08,13,03,49,6.90
2020,08,13,03,50,6.90
2020,08,13,03,51,6.90
2020,08,13,03,52,6.90
2020,08,13,03,53,6.90
2020,08,13,03,54,6.90
2020,08,13,03,55,6.90
2020,08,13,03,56,6.90
2020,08,13,03,57,6.90
2020,08,13,03,58,6.90
2020,08,13,03,59,6.90
2020,08,13,04,00,6.90
2020,08,13,04,01,6.90
2020,08,13,04,02,6.90
2020,08,13,04,03,6.90
2020,08,13,04,04,6.90
2020,08,13,04,05,6.90
2020,08,13,04,06,6.90
2020,08,13,04,07,6.80
2020,08,13,04,08,6.80
2020,08,13,04,09,6.80
2020,08,13,04,10,6.70
2020,08,13,04,11,6.70
2020,08,13,04,12,6.60
2020,08,13,04,13,6.60
2020,08,13,04,14,6.60
2020,08,13,04,15,6.60
2020,08,13,04,16,6.50
2020,08,13,04,17,6.50
2020,08,13,04,18,6.50
2020,08,13,04,19,6.50
2020,08,13,04,20,6.40
2020,08,13,04,21,6.40
2020,08,13,04,22,6.50
2020,08,13,04,23,6.50
2020,08,13,04,24,6.50
2020,08,13,04,25,6.50
2020,08,13,04,26,6.50
2020,08,13,04,27,6.50
2020,08,13,04,28,6.50
2020,08,13,04,29,6.50
2020,08,13,04,30,6.50
2020,08,13,04,31,6.50
2020,08,13,04,32,6.50
2020,08,13,04,33,6.50
2020,08,13,04,34,6.50
2020,08,13,04,35,6.50
2020,08,13,04,36,6.50
2020,08,13,04,37,6.50
2020,08,13,04,38,6.50
2020,08,13,04,39,6.50
2020,08,13,04,40,6.50
2020,08,13,04,41,6.50
2020,08,13,04,42,6.50
2020,08,13,04,43,6.50
2020,08,13,04,44,6.50
2020,08,13,04,45,6.50
2020,08,13,04,46,6.40
2020,08,13,04,47,6.40
2020,08,13,04,48,6.40
2020,08,13,04,49,6.40
2020,08,13,04,50,6.40
2020,08,13,04,51,6.40
2020,08,13,04,52,6.40
2020,08,13,04,53,6.40
2020,08,13,04,54,6.40
2020,08,13,04,55,6.40
2020,08,13,04,56,6.40
2020,08,13,04,57,6.40
2020,08,13,04,58,6.40
2020,08,13,04,59,6.40
2020,08,13,05,00,6.40
2020,08,13,05,01,6.40
2020,08,13,05,02,6.40
2020,08,13,05,03,6.40
2020,08,13,05,04,6.40
2020,08,13,05,05,6.40
2020,08,13,05,06,6.40
2020,08,13,05,07,6.50
2020,08,13,05,08,6.40
2020,08,13,05,09,6.40
2020,08,13,05,10,6.40
2020,08,13,05,11,6.40
2020,08,13,05,12,6.40
2020,08,13,05,13,6.30
2020,08,13,05,14,6.30
2020,08,13,05,15,6.30
2020,08,13,05,16,6.20
2020,08,13,05,17,6.20
2020,08,13,05,18,6.20
2020,08,13,05,19,6.20
2020,08,13,05,20,6.10
2020,08,13,05,21,6.10
2020,08,13,05,22,6.10
2020,08,13,05,23,6.10
2020,08,13,05,24,6.10
2020,08,13,05,25,6.10
2020,08,13,05,26,6.10
2020,08,13,05,27,6.10
2020,08,13,05,28,6.10
2020,08,13,05,29,6.10
2020,08,13,05,30,6.00
2020,08,13,05,31,6.00
2020,08,13,05,32,6.00
2020,08,13,05,33,6.00
2020,08,13,05,34,5.90
2020,08,13,05,35,6.00
2020,08,13,05,36,6.00
2020,08,13,05,37,6.00
2020,08,13,05,38,6.00
2020,08,13,05,39,6.10
2020,08,13,05,40,6.10
2020,08,13,05,41,6.10
2020,08,13,05,42,6.10
2020,08,13,05,43,6.10
2020,08,13,05,44,6.10
2020,08,13,05,45,6.10
2020,08,13,05,46,6.10
2020,08,13,05,47,6.10
2020,08,13,05,48,6.10
2020,08,13,05,49,6.20
2020,08,13,05,50,6.20
2020,08,13,05,51,6.20
2020,08,13,05,52,6.20
2020,08,13,05,53,6.20
2020,08,13,05,54,6.20
2020,08,13,05,55,6.20
2020,08,13,05,56,6.20
2020,08,13,05,57,6.20
2020,08,13,05,58,6.20
2020,08,13,05,59,6.20
2020,08,13,06,00,6.20
2020,08,13,06,01,6.20
2020,08,13,06,02,6.20
2020,08,13,06,03,6.20
2020,08,13,06,04,6.20
2020,08,13,06,05,6.20
2020,08,13,06,06,6.20
2020,08,13,06,07,6.20
2020,08,13,06,08,6.20
2020,08,13,06,09,6.20
2020,08,13,06,10,6.20
2020,08,13,06,11,6.20
2020,08,13,06,12,6.20
2020,08,13,06,13,6.20
2020,08,13,06,14,6.20
2020,08,13,06,15,6.20
2020,08,13,06,16,6.20
2020,08,13,06,17,6.20
2020,08,13,06,18,6.20
2020,08,13,06,19,6.20
2020,08,13,06,20,6.20
2020,08,13,06,21,6.10
2020,08,13,06,22,6.10
2020,08,13,06,23,6.00
2020,08,13,06,24,6.00
2020,08,13,06,25,6.00
2020,08,13,06,26,5.90
2020,08,13,06,27,5.90
2020,08,13,06,28,5.90
2020,08,13,06,29,5.80
2020,08,13,06,30,5.80
2020,08,13,06,31,5.80
2020,08,13,06,32,5.80
2020,08,13,06,33,5.80
2020,08,13,06,34,5.80
2020,08,13,06,35,5.80
2020,08,13,06,36,5.80
2020,08,13,06,37,5.80
2020,08,13,06,38,5.80
2020,08,13,06,39,5.80
2020,08,13,06,40,5.80
2020,08,13,06,41,5.80
2020,08,13,06,42,5.80
2020,08,13,06,43,5.80
2020,08,13,06,44,5.80
2020,08,13,06,45,5.80
2020,08,13,06,46,5.80
2020,08,13,06,47,5.80
2020,08,13,06,48,5.80
2020,08,13,06,49,5.80
2020,08,13,06,50,5.80
2020,08,13,06,51,5.90
2020,08,13,06,52,5.90
2020,08,13,06,53,5.90
2020,08,13,06,54,6.00
2020,08,13,06,55,6.00
2020,08,13,06,56,6.00
2020,08,13,06,57,6.00
2020,08,13,06,58,6.10
2020,08,13,06,59,6.10
2020,08,13,07,00,6.10
2020,08,13,07,01,6.10
2020,08,13,07,02,6.10
2020,08,13,07,03,6.20
2020,08,13,07,04,6.20
2020,08,13,07,05,6.20
2020,08,13,07,06,6.20
2020,08,13,07,07,6.20
2020,08,13,07,08,6.20
2020,08,13,07,09,6.30
2020,08,13,07,10,6.30
2020,08,13,07,11,6.30
2020,08,13,07,12,6.30
2020,08,13,07,13,6.30
2020,08,13,07,14,6.30
2020,08,13,07,15,6.30
2020,08,13,07,16,6.30
2020,08,13,07,17,6.30
2020,08,13,07,18,6.30
2020,08,13,07,19,6.40
2020,08,13,07,20,6.40
2020,08,13,07,21,6.40
2020,08,13,07,22,6.40
2020,08,13,07,23,6.40
2020,08,13,07,24,6.50
2020,08,13,07,25,6.50
2020,08,13,07,26,6.50
2020,08,13,07,27,6.60
2020,08,13,07,28,6.60
2020,08,13,07,29,6.70
2020,08,13,07,30,6.70
2020,08,13,07,31,6.80
2020,08,13,07,32,6.80
2020,08,13,07,33,6.90
2020,08,13,07,34,6.90
2020,08,13,07,35,6.90
2020,08,13,07,36,7.00
2020,08,13,07,37,7.00
2020,08,13,07,38,7.10
2020,08,13,07,39,7.20
2020,08,13,07,40,7.20
2020,08,13,07,41,7.30
2020,08,13,07,42,7.40
2020,08,13,07,43,7.50
2020,08,13,07,44,7.60
2020,08,13,07,45,7.70
2020,08,13,07,46,7.70
2020,08,13,07,47,7.80
2020,08,13,07,48,7.80
2020,08,13,07,49,7.90
2020,08,13,07,50,8.00
2020,08,13,07,51,8.00
2020,08,13,07,52,8.10
2020,08,13,07,53,8.10
2020,08,13,07,54,8.20
2020,08,13,07,55,8.20
2020,08,13,07,56,8.30
2020,08,13,07,57,8.30
2020,08,13,07,58,8.40
2020,08,13,07,59,8.40
2020,08,13,08,00,8.50
2020,08,13,08,01,8.60
2020,08,13,08,02,8.60
2020,08,13,08,03,8.70
2020,08,13,08,04,8.70
2020,08,13,08,05,8.80
2020,08,13,08,06,8.80
2020,08,13,08,07,8.90
2020,08,13,08,08,8.90
2020,08,13,08,09,8.90
2020,08,13,08,10,9.00
2020,08,13,08,11,9.10
2020,08,13,08,12,9.10
2020,08,13,08,13,9.20
2020,08,13,08,14,9.30
2020,08,13,08,15,9.30
2020,08,13,08,16,9.40
2020,08,13,08,17,9.50
2020,08,13,08,18,9.60
2020,08,13,08,19,9.70
2020,08,13,08,20,9.80
2020,08,13,08,21,9.90
2020,08,13,08,22,10.00
2020,08,13,08,23,10.00
2020,08,13,08,24,10.10
2020,08,13,08,25,10.20
2020,08,13,08,26,10.30
2020,08,13,08,27,10.40
2020,08,13,08,28,10.50
2020,08,13,08,29,10.60
2020,08,13,08,30,10.70
2020,08,13,08,31,10.80
2020,08,13,08,32,10.90
2020,08,13,08,33,11.00
2020,08,13,08,34,11.10
2020,08,13,08,35,11.20
2020,08,13,08,36,11.30
2020,08,13,08,37,11.50
2020,08,13,08,38,11.60
2020,08,13,08,39,11.80
2020,08,13,08,40,12.00
2020,08,13,08,41,12.10
2020,08,13,08,42,12.30
2020,08,13,08,43,12.50
2020,08,13,08,44,12.60
2020,08,13,08,45,12.80
2020,08,13,08,46,12.90
2020,08,13,08,47,13.00
2020,08,13,08,48,13.10
2020,08,13,08,49,13.20
2020,08,13,08,50,13.30
2020,08,13,08,51,13.40
2020,08,13,08,52,13.50
2020,08,13,08,53,13.60
2020,08,13,08,54,13.80
2020,08,13,08,55,13.90
2020,08,13,08,56,14.00
2020,08,13,08,57,14.10
2020,08,13,08,58,14.20
2020,08,13,08,59,14.40
2020,08,13,09,00,14.50
2020,08,13,09,01,14.60
2020,08,13,09,02,14.70
2020,08,13,09,03,14.80
2020,08,13,09,04,14.90
2020,08,13,09,05,15.00
2020,08,13,09,06,15.10
2020,08,13,09,07,15.10
2020,08,13,09,08,15.20
2020,08,13,09,09,15.30
2020,08,13,09,10,15.40
2020,08,13,09,11,15.50
2020,08,13,09,12,15.60
2020,08,13,09,13,15.70
2020,08,13,09,14,15.80
2020,08,13,09,15,15.80
2020,08,13,09,16,15.80
2020,08,13,09,17,15.90
2020,08,13,09,18,15.90
2020,08,13,09,19,16.00
2020,08,13,09,20,16.00
2020,08,13,09,21,16.10
2020,08,13,09,22,16.20
2020,08,13,09,23,16.20
2020,08,13,09,24,16.30
2020,08,13,09,25,16.30
2020,08,13,09,26,16.30
2020,08,13,09,27,16.30
2020,08,13,09,28,16.30
2020,08,13,09,29,16.40
2020,08,13,09,30,16.40
2020,08,13,09,31,16.50
2020,08,13,09,32,16.60
2020,08,13,09,33,16.70
2020,08,13,09,34,16.80
2020,08,13,09,35,16.80
2020,08,13,09,36,16.90
2020,08,13,09,37,17.00
2020,08,13,09,38,17.00
2020,08,13,09,39,17.10
2020,08,13,09,40,17.10
2020,08,13,09,41,17.20
2020,08,13,09,42,17.20
2020,08,13,09,43,17.20
2020,08,13,09,44,17.20
2020,08,13,09,45,17.30
2020,08,13,09,46,17.30
2020,08,13,09,47,17.30
2020,08,13,09,48,17.30
2020,08,13,09,49,17.30
2020,08,13,09,50,17.40
2020,08,13,09,51,17.40
2020,08,13,09,52,17.50
2020,08,13,09,53,17.50
2020,08,13,09,54,17.60
2020,08,13,09,55,17.60
2020,08,13,09,56,17.60
2020,08,13,09,57,17.60
2020,08,13,09,58,17.70
2020,08,13,09,59,17.70
2020,08,13,10,00,17.70
2020,08,13,10,01,17.70
2020,08,13,10,02,17.70
2020,08,13,10,03,17.70
2020,08,13,10,04,17.70
2020,08,13,10,05,17.70
2020,08,13,10,06,17.80
2020,08,13,10,07,17.80
2020,08,13,10,08,17.80
2020,08,13,10,09,17.90
2020,08,13,10,10,18.00
2020,08,13,10,11,18.10
2020,08,13,10,12,18.30
2020,08,13,10,13,18.30
2020,08,13,10,14,18.40
2020,08,13,10,15,18.40
2020,08,13,10,16,18.40
2020,08,13,10,17,18.50
2020,08,13,10,18,18.60
2020,08,13,10,19,18.60
2020,08,13,10,20,18.60
2020,08,13,10,21,18.60
2020,08,13,10,22,18.60
2020,08,13,10,23,18.60
2020,08,13,10,24,18.60
2020,08,13,10,25,18.60
2020,08,13,10,26,18.60
2020,08,13,10,27,18.70
2020,08,13,10,28,18.70
2020,08,13,10,29,18.70
2020,08,13,10,30,18.80
2020,08,13,10,31,18.80
2020,08,13,10,32,18.90
2020,08,13,10,33,19.00
2020,08,13,10,34,19.00
2020,08,13,10,35,19.10
2020,08,13,10,36,19.20
2020,08,13,10,37,19.20
2020,08,13,10,38,19.20
2020,08,13,10,39,19.20
2020,08,13,10,40,19.20
2020,08,13,10,41,19.30
2020,08,13,10,42,19.30
2020,08,13,10,43,19.30
2020,08,13,10,44,19.30
2020,08,13,10,45,19.20
2020,08,13,10,46,19.10
2020,08,13,10,47,19.10
2020,08,13,10,48,19.10
2020,08,13,10,49,19.00
2020,08,13,10,50,19.00
2020,08,13,10,51,19.00
2020,08,13,10,52,19.00
2020,08,13,10,53,18.90
2020,08,13,10,54,18.90
2020,08,13,10,55,18.80
2020,08,13,10,56,18.80
2020,08,13,10,57,18.80
2020,08,13,10,58,18.90
2020,08,13,10,59,18.90
2020,08,13,11,00,18.90
2020,08,13,11,01,18.90
2020,08,13,11,02,18.90
2020,08,13,11,03,18.90
2020,08,13,11,04,18.90
2020,08,13,11,05,18.90
2020,08,13,11,06,19.00
2020,08,13,11,07,19.00
2020,08,13,11,08,19.00
2020,08,13,11,09,19.00
2020,08,13,11,10,19.00
2020,08,13,11,11,19.00
2020,08,13,11,12,18.90
2020,08,13,11,13,18.90
2020,08,13,11,14,18.90
2020,08,13,11,15,18.90
2020,08,13,11,16,18.90
2020,08,13,11,17,19.00
2020,08,13,11,18,18.90
2020,08,13,11,19,19.00
2020,08,13,11,20,19.00
2020,08,13,11,21,19.10
2020,08,13,11,22,19.10
2020,08,13,11,23,19.20
2020,08,13,11,24,19.20
2020,08,13,11,25,19.20
2020,08,13,11,26,19.30
2020,08,13,11,27,19.30
2020,08,13,11,28,19.30
2020,08,13,11,29,19.30
2020,08,13,11,30,19.30
2020,08,13,11,31,19.30
2020,08,13,11,32,19.40
2020,08,13,11,33,19.40
2020,08,13,11,34,19.50
2020,08,13,11,35,19.50
2020,08,13,11,36,19.60
2020,08,13,11,37,19.50
2020,08,13,11,38,19.50
2020,08,13,11,39,19.40
2020,08,13,11,40,19.30
2020,08,13,11,41,19.30
2020,08,13,11,42,19.30
2020,08,13,11,43,19.40
2020,08,13,11,44,19.40
2020,08,13,11,45,19.40
2020,08,13,11,46,19.50
2020,08,13,11,47,19.50
2020,08,13,11,48,19.60
2020,08,13,11,49,19.60
2020,08,13,11,50,19.70
2020,08,13,11,51,19.80
2020,08,13,11,52,19.80
2020,08,13,11,53,19.80
2020,08,13,11,54,19.80
2020,08,13,11,55,19.80
2020,08,13,11,56,19.90
2020,08,13,11,57,20.00
2020,08,13,11,58,20.10
2020,08,13,11,59,20.10
2020,08,13,12,00,20.20
2020,08,13,12,01,20.20
2020,08,13,12,02,20.20
2020,08,13,12,03,20.10
2020,08,13,12,04,20.10
2020,08,13,12,05,20.10
2020,08,13,12,06,20.10
2020,08,13,12,07,20.10
2020,08,13,12,08,20.20
2020,08,13,12,09,20.20
2020,08,13,12,10,20.30
2020,08,13,12,11,20.30
2020,08,13,12,12,20.20
2020,08,13,12,13,20.10
2020,08,13,12,14,20.10
2020,08,13,12,15,20.00
2020,08,13,12,16,20.00
2020,08,13,12,17,20.00
2020,08,13,12,18,19.90
2020,08,13,12,19,20.00
2020,08,13,12,20,20.10
2020,08,13,12,21,20.20
2020,08,13,12,22,20.30
2020,08,13,12,23,20.40
2020,08,13,12,24,20.40
2020,08,13,12,25,20.50
2020,08,13,12,26,20.40
2020,08,13,12,27,20.40
2020,08,13,12,28,20.40
2020,08,13,12,29,20.30
2020,08,13,12,30,20.30
2020,08,13,12,31,20.20
2020,08,13,12,32,20.10
2020,08,13,12,33,20.10
2020,08,13,12,34,20.20
2020,08,13,12,35,20.20
2020,08,13,12,36,20.20
2020,08,13,12,37,20.20
2020,08,13,12,38,20.20
2020,08,13,12,39,20.30
2020,08,13,12,40,20.40
2020,08,13,12,41,20.50
2020,08,13,12,42,20.60
2020,08,13,12,43,20.60
2020,08,13,12,44,20.60
2020,08,13,12,45,20.50
2020,08,13,12,46,20.50
2020,08,13,12,47,20.40
2020,08,13,12,48,20.40
2020,08,13,12,49,20.40
2020,08,13,12,50,20.40
2020,08,13,12,51,20.40
2020,08,13,12,52,20.50
2020,08,13,12,53,20.50
2020,08,13,12,54,20.50
2020,08,13,12,55,20.40
2020,08,13,12,56,20.40
2020,08,13,12,57,20.40
2020,08,13,12,58,20.40
2020,08,13,12,59,20.50
2020,08,13,13,00,20.50
2020,08,13,13,01,20.60
2020,08,13,13,02,20.70
2020,08,13,13,03,20.70
2020,08,13,13,04,20.70
2020,08,13,13,05,20.70
2020,08,13,13,06,20.70
2020,08,13,13,07,20.70
2020,08,13,13,08,20.60
2020,08,13,13,09,20.70
2020,08,13,13,10,20.70
2020,08,13,13,11,20.70
2020,08,13,13,12,20.60
2020,08,13,13,13,20.50
2020,08,13,13,14,20.40
2020,08,13,13,15,20.30
2020,08,13,13,16,20.30
2020,08,13,13,17,20.40
2020,08,13,13,18,20.50
2020,08,13,13,19,20.50
2020,08,13,13,20,20.60
2020,08,13,13,21,20.60
2020,08,13,13,22,20.50
2020,08,13,13,23,20.60
2020,08,13,13,24,20.70
2020,08,13,13,25,20.80
2020,08,13,13,26,20.80
2020,08,13,13,27,20.80
2020,08,13,13,28,20.80
2020,08,13,13,29,20.80
2020,08,13,13,30,20.80
2020,08,13,13,31,20.80
2020,08,13,13,32,20.70
2020,08,13,13,33,20.70
2020,08,13,13,34,20.60
2020,08,13,13,35,20.60
2020,08,13,13,36,20.60
2020,08,13,13,37,20.70
2020,08,13,13,38,20.80
2020,08,13,13,39,20.80
2020,08,13,13,40,20.90
2020,08,13,13,41,20.90
2020,08,13,13,42,20.80
2020,08,13,13,43,20.80
2020,08,13,13,44,20.90
2020,08,13,13,45,21.00
2020,08,13,13,46,21.20
2020,08,13,13,47,21.30
2020,08,13,13,48,21.30
2020,08,13,13,49,21.30
2020,08,13,13,50,21.30
2020,08,13,13,51,21.30
2020,08,13,13,52,21.30
2020,08,13,13,53,21.30
2020,08,13,13,54,21.40
2020,08,13,13,55,21.40
2020,08,13,13,56,21.40
2020,08,13,13,57,21.30
2020,08,13,13,58,21.30
2020,08,13,13,59,21.20
2020,08,13,14,00,21.20
2020,08,13,14,01,21.00
2020,08,13,14,02,21.00
2020,08,13,14,03,20.90
2020,08,13,14,04,20.80
2020,08,13,14,05,20.80
2020,08,13,14,06,20.80
2020,08,13,14,07,20.80
2020,08,13,14,08,20.80
2020,08,13,14,09,20.80
2020,08,13,14,10,20.80
2020,08,13,14,11,20.90
2020,08,13,14,12,21.00
2020,08,13,14,13,21.10
2020,08,13,14,14,21.10
2020,08,13,14,15,21.10
2020,08,13,14,16,21.00
2020,08,13,14,17,21.00
2020,08,13,14,18,21.00
2020,08,13,14,19,21.10
2020,08,13,14,20,21.10
2020,08,13,14,21,21.10
2020,08,13,14,22,21.20
2020,08,13,14,23,21.30
2020,08,13,14,24,21.40
2020,08,13,14,25,21.40
2020,08,13,14,26,21.40
2020,08,13,14,27,21.40
2020,08,13,14,28,21.50
2020,08,13,14,29,21.50
2020,08,13,14,30,21.50
2020,08,13,14,31,21.60
2020,08,13,14,32,21.60
2020,08,13,14,33,21.70
2020,08,13,14,34,21.70
2020,08,13,14,35,21.70
2020,08,13,14,36,21.70
2020,08,13,14,37,21.70
2020,08,13,14,38,21.60
2020,08,13,14,39,21.70
2020,08,13,14,40,21.60
2020,08,13,14,41,21.60
2020,08,13,14,42,21.60
2020,08,13,14,43,21.50
2020,08,13,14,44,21.50
2020,08,13,14,45,21.40
2020,08,13,14,46,21.40
2020,08,13,14,47,21.30
2020,08,13,14,48,21.20
2020,08,13,14,49,21.10
2020,08,13,14,50,21.10
2020,08,13,14,51,21.10
2020,08,13,14,52,21.20
2020,08,13,14,53,21.20
2020,08,13,14,54,21.30
2020,08,13,14,55,21.40
2020,08,13,14,56,21.50
2020,08,13,14,57,21.60
2020,08,13,14,58,21.80
2020,08,13,14,59,21.80
2020,08,13,15,00,21.80
2020,08,13,15,01,21.90
2020,08,13,15,02,22.00
2020,08,13,15,03,22.00
2020,08,13,15,04,22.00
2020,08,13,15,05,22.10
2020,08,13,15,06,22.10
2020,08,13,15,07,22.00
2020,08,13,15,08,21.90
2020,08,13,15,09,22.00
2020,08,13,15,10,22.10
2020,08,13,15,11,22.10
2020,08,13,15,12,22.10
2020,08,13,15,13,22.10
2020,08,13,15,14,22.10
2020,08,13,15,15,22.10
2020,08,13,15,16,22.10
2020,08,13,15,17,22.20
2020,08,13,15,18,22.20
2020,08,13,15,19,22.20
2020,08,13,15,20,22.10
2020,08,13,15,21,22.10
2020,08,13,15,22,22.10
2020,08,13,15,23,22.00
2020,08,13,15,24,22.00
2020,08,13,15,25,22.10
2020,08,13,15,26,22.10
2020,08,13,15,27,22.00
2020,08,13,15,28,21.90
2020,08,13,15,29,21.90
2020,08,13,15,30,21.90
2020,08,13,15,31,21.70
2020,08,13,15,32,21.70
2020,08,13,15,33,21.60
2020,08,13,15,34,21.50
2020,08,13,15,35,21.40
2020,08,13,15,36,21.40
2020,08,13,15,37,21.30
2020,08,13,15,38,21.30
2020,08,13,15,39,21.20
2020,08,13,15,40,21.10
2020,08,13,15,41,21.00
2020,08,13,15,42,20.90
2020,08,13,15,43,20.80
2020,08,13,15,44,20.80
2020,08,13,15,45,20.70
2020,08,13,15,46,20.60
2020,08,13,15,47,20.50
2020,08,13,15,48,20.40
2020,08,13,15,49,20.30
2020,08,13,15,50,20.30
2020,08,13,15,51,20.30
2020,08,13,15,52,20.50
2020,08,13,15,53,20.70
2020,08,13,15,54,20.80
2020,08,13,15,55,20.90
2020,08,13,15,56,20.90
2020,08,13,15,57,20.90
2020,08,13,15,58,20.70
2020,08,13,15,59,20.70
2020,08,13,16,00,20.70
2020,08,13,16,01,20.80
2020,08,13,16,02,20.90
2020,08,13,16,03,21.00
2020,08,13,16,04,21.00
2020,08,13,16,05,21.00
2020,08,13,16,06,21.00
2020,08,13,16,07,21.10
2020,08,13,16,08,21.10
2020,08,13,16,09,21.10
2020,08,13,16,10,21.10
2020,08,13,16,11,21.10
2020,08,13,16,12,21.20
2020,08,13,16,13,21.20
2020,08,13,16,14,21.20
2020,08,13,16,15,21.30
2020,08,13,16,16,21.40
2020,08,13,16,17,21.30
2020,08,13,16,18,21.20
2020,08,13,16,19,21.10
2020,08,13,16,20,21.00
2020,08,13,16,21,21.00
2020,08,13,16,22,20.90
2020,08,13,16,23,21.00
2020,08,13,16,24,21.00
2020,08,13,16,25,21.10
2020,08,13,16,26,21.00
2020,08,13,16,27,21.00
2020,08,13,16,28,21.00
2020,08,13,16,29,21.00
2020,08,13,16,30,21.00
2020,08,13,16,31,21.00
2020,08,13,16,32,21.00
2020,08,13,16,33,21.00
2020,08,13,16,34,21.00
2020,08,13,16,35,21.00
2020,08,13,16,36,21.00
2020,08,13,16,37,21.00
2020,08,13,16,38,20.90
2020,08,13,16,39,20.90
2020,08,13,16,40,20.90
2020,08,13,16,41,21.00
2020,08,13,16,42,21.00
2020,08,13,16,43,21.00
2020,08,13,16,44,21.10
2020,08,13,16,45,21.20
2020,08,13,16,46,21.10
2020,08,13,16,47,21.20
2020,08,13,16,48,21.10
2020,08,13,16,49,21.10
2020,08,13,16,50,21.00
2020,08,13,16,51,21.00
2020,08,13,16,52,20.90
2020,08,13,16,53,20.90
2020,08,13,16,54,20.80
2020,08,13,16,55,20.80
2020,08,13,16,56,20.80
2020,08,13,16,57,20.80
2020,08,13,16,58,20.80
2020,08,13,16,59,20.80
2020,08,13,17,00,20.90
2020,08,13,17,01,20.90
2020,08,13,17,02,20.90
2020,08,13,17,03,20.90
2020,08,13,17,04,20.90
2020,08,13,17,05,20.80
2020,08,13,17,06,20.70
2020,08,13,17,07,20.60
2020,08,13,17,08,20.60
2020,08,13,17,09,20.60
2020,08,13,17,10,20.50
2020,08,13,17,11,20.50
2020,08,13,17,12,20.60
2020,08,13,17,13,20.50
2020,08,13,17,14,20.50
2020,08,13,17,15,20.40
2020,08,13,17,16,20.50
2020,08,13,17,17,20.50
2020,08,13,17,18,20.50
2020,08,13,17,19,20.50
2020,08,13,17,20,20.50
2020,08,13,17,21,20.50
2020,08,13,17,22,20.50
2020,08,13,17,23,20.50
2020,08,13,17,24,20.60
2020,08,13,17,25,20.60
2020,08,13,17,26,20.60
2020,08,13,17,27,20.70
2020,08,13,17,28,20.70
2020,08,13,17,29,20.70
2020,08,13,17,30,20.80
2020,08,13,17,31,20.80
2020,08,13,17,32,20.80
2020,08,13,17,33,20.80
2020,08,13,17,34,20.80
2020,08,13,17,35,20.80
2020,08,13,17,36,20.80
2020,08,13,17,37,20.90
2020,08,13,17,38,20.80
2020,08,13,17,39,20.90